Regional Weather Roundup
Issued by NWS New Orleans/Baton Rouge, LA

Home | Current Version | Previous Version | Text Only | Print | Product List | Glossary On
Versions: 1 2 3 4 5 6 7 8 9 10 11 12 13 14 15 16 17 18 19 20 21 22 23 24 25 26 27 28 29 30 31 32 33 34 35 36 37 38 39 40 41 42 43 44 45 46 47 48 49 50
574
ASUS44 KLIX 020610
RWRLIX
NEW ORLEANS REGIONAL WEATHER ROUNDUP
NATIONAL WEATHER SERVICE NEW ORLEANS LA
1200 AM CST MON MAR 02 2015

NOTE: "FAIR" INDICATES FEW OR NO CLOUDS BELOW 12,000 FEET WITH NO
      SIGNIFICANT WEATHER AND/OR OBSTRUCTIONS TO VISIBILITY.
      SKY/WX - SKY CONDITION AND SIGNIFICANT WEATHER.
      TMP - AIR TEMPERATURE.     DP    - DEWPOINT TEMPERATURE.
      RH  - RELATIVE HUMIDITY.   PRES  - PRESSURE.
      HI  - HEAT INDEX.          WCI   - WIND CHILL INDEX.

*  THESE STATIONS ARE NOT NWS OR FAA STATIONS AND ARE NOT UNDER
   NWS QUALITY CONTROL.

LAZ038-040-048-061>063-065>067-069-020700-
SOUTHEAST LOUISIANA

CITY           SKY/WX    TMP DP  RH WIND       PRES   REMARKS
N.O. AUDUBON     N/A     58  58 100 MISG        N/A
6HR MIN TEMP:  57; 6HR MAX TEMP:  59; 6HR PCP:  0.07;

N.O. INTL ARPT LGT RAIN  59  57  93 E10       30.29S FOG
6HR MIN TEMP:  58; 6HR MAX TEMP:  60; 6HR PCP:  0.12;

N.O. LAKEFRONT RAIN      60  57  89 E10       30.30F FOG
6HR MIN TEMP:  57; 6HR MAX TEMP:  60; 6HR PCP:  0.06;

SLIDELL        LGT RAIN  60  60 100 E9        30.30F
6HR MIN TEMP:  60; 6HR MAX TEMP:  61; 6HR PCP:  0.18;

BATON ROUGE    RAIN      62  60  93 E9        30.28F
6HR MIN TEMP:  61; 6HR MAX TEMP:  63; 6HR PCP:  1.10;

BOOTHVILLE     FOG       62  62 100 E7        30.30S VSB 1/4
6HR MIN TEMP:  60; 6HR MAX TEMP:  67;

BELLE CHASSE   LGT RAIN  57  55  93 NE12      30.30S FOG
6HR MIN TEMP:  57; 6HR MAX TEMP:  59; 6HR PCP:  0.01;

BOGALUSA*        N/A     61  57  88 CALM      30.31F
6HR MIN TEMP:  61; 6HR MAX TEMP:  63; 6HR PCP:  0.46;

GALLIANO*      FOG       57  57  98 CALM      30.28S VSB 1/4
6HR MIN TEMP:  57; 6HR MAX TEMP:  69;

NEW ROADS*     CLOUDY    62  61  97 E7        30.28S
6HR MIN TEMP:  62; 6HR MAX TEMP:  64; 6HR PCP:  0.80;

GONZALES*      RAIN      61  61 100 E7        30.28F
6HR MIN TEMP:  58; 6HR MAX TEMP:  61; 6HR PCP:  2.35;

HAMMOND*       HVY RAIN  61  57  88 NE3       30.31S
HOUMA*         CLOUDY    64  63  97 N12       30.28R FOG
6HR MIN TEMP:  63; 6HR MAX TEMP:  70;

PORT FOURCHON* FOG       64  64 100 E8        30.30S VSB 1/4

$$

MSZ070-080>082-020700-
SOUTHERN MISSISSIPPI

CITY           SKY/WX    TMP DP  RH WIND       PRES   REMARKS
MCCOMB         LGT RAIN  61  60  97 E3        30.29F
6HR MIN TEMP:  61; 6HR MAX TEMP:  63; 6HR PCP:  1.63;

GULFPORT       LGT RAIN  59  57  93 E10       30.32F FOG
6HR MIN TEMP:  59; 6HR MAX TEMP:  61; 6HR PCP:  0.08;

BILOXI         LGT RAIN  59  59 100 E8        30.32F
6HR MIN TEMP:  59; 6HR MAX TEMP:  61; 6HR PCP:  0.01;

PASCAGOULA     CLOUDY    57  56  96 NE6       30.34F FOG
6HR MIN TEMP:  57; 6HR MAX TEMP:  59; 6HR PCP: TRACE;


$$

COASTAL OBSERVATIONS
LAKE AND NEARSHORE STATIONS

STATION/POSITION TIME  TEMP    WIND        PRES    WAVE
                       AIR SEA DIR/SP/G            HT/PER
                 (UTC) (F)     (DEG/KT/KT) (MB)    (FT/S)
PASCAGOULA       0600   58      50/ 11/ 13 1026.9
WAVELAND YACHT   0600   58 54   80/  9/ 10 1026.3
GRAND ISLE       0600   64 59  120/  3/  8 1025.8
SOUTHWEST PASS   0600          120/ 13/ 13   N/A
NEW CANAL        0600   59      80/  7/ 13 1026.6
SHELL BEACH      0600   56 55   70/ 15/ 21 1026.0

OFFSHORE STATIONS

STATION/POSITION TIME  TEMP    WIND        PRES    WAVE
                       AIR SEA DIR/SP/G            HT/PER
                 (UTC) (F)     (DEG/KT/KT) (MB)    (FT/S)
64 S DAUPHIN ISL 0453   69 71  100/ 14/ 14 1026.6    4/ 6

$$




USA.gov is the U.S. government's official web portal to all federal, state and local government web resources and services.